Back to catalog

LDPE-3A DEB

AliveGEO
NORAD 55267·DEBRIS·🇺🇸 United States

Launched Jan 15, 2023 from Cape Canaveral Space Force Station

Loading…

TLE

FreshSource: Space-Track

Epoch: Sep 13, 2026, 21:39 UTC

1 55267U 23008E   26256.90277326 -.00000129  00000-0  00000-0 0  9998
2 55267   3.3735  76.9842 0003858 190.0939 170.3059  1.02218218  8805

Track LDPE-3A DEB in real time with AllMySat

Download on the App Store